sat.trackr.live / text

‹ back to catalog

STARLINK-5921

NORAD 55926 · 2023-037N

PAYLOAD ACTIVE UNKNOWN

§ Identity

Operator
Country
US
Launch date
2023-03-17
Launch site
AFWTR
Launch vehicle
Mass (kg)
RCS (m²)

Purposes: comms

External: N2YO · Heavens-Above · Gunter

§ Orbital elements

Epoch: 2026-05-25T02:32:41.436096Z

Period
96.11 min
Inclination
69.9996°
Eccentricity
0.0003076
Mean motion
14.98330966 rev/d
Perigee alt
569.9 km
Apogee alt
574.2 km
Semi-major
6,950.2 km
B*
2.8441e-6
RAAN
91.9064°
Arg perigee
269.1708°
Mean anomaly
90.9099°
Rev number
17,542

§ Raw data

STARLINK-59211 55926U 23037N   26145.10603514 -.00000059  00000+0  28441-5 0  99982 55926  69.9996  91.9064 0003076 269.1708  90.9099 14.98330966175429

JSON: /api/v1/satellites/55926 · /tle

For live sub-satellite position, see the globe view (requires WebGL).

§ Visibility from observer

Set your observer location to see the next 7 days of passes ≥ 10°. The values pass through the URL so the page stays shareable.

No JS? Fill the form by hand. The geolocation button needs JavaScript.